[Iaude] MPEC U45: 2023 TM22 [a=0.96,e=0.41,i=24.4,H=23.9]

mpec at marsden.cfa.harvard.edu mpec at marsden.cfa.harvard.edu
Tue Oct 17 11:47:26 EDT 2023


M.P.E.C. 2023-U45                              Issued 2023 October 17, 15:46 UT

     The Minor Planet Electronic Circulars contain information on unusual
         minor planets, routine data on comets and natural satellites,
         and occasional editorial announcements.  They are published
    on behalf of Division F of the International Astronomical Union by the
          Minor Planet Center, Smithsonian Astrophysical Observatory,
                          Cambridge, MA 02138, U.S.A.
			  
             Prepared using the Tamkin Foundation Computer Network

                              MPC at CFA.HARVARD.EDU
            URL https://www.minorplanetcenter.net/    ISSN 1523-6714

                                   2023 TM22                                    


Observations:
     K23T22M* C2023 10 14.37625801 46 03.834-32 27 36.04         20.31wXEU045F51
     K23T22M  C2023 10 14.38565001 45 55.881-32 27 47.89         20.72wXEU045F51
     K23T22M  C2023 10 14.39504601 45 47.892-32 27 59.48         20.63wXEU045F51
     K23T22M  C2023 10 14.40439801 45 39.897-32 28 11.00         21.16wXEU045F51
     K23T22M  C2023 10 14.50951101 44 09.603-32 30 08.09         20.36GVEU045F52
     K23T22M  C2023 10 14.51014801 44 09.065-32 30 08.81         20.94GVEU045F52
     K23T22M 3C2023 10 15.37316401 31 32.822-32 44 23.08         20.76GVEU045T14
     K23T22M 3C2023 10 15.37414101 31 31.887-32 44 23.94         20.77GVEU045T14
     K23T22M 3C2023 10 15.37517801 31 30.867-32 44 24.89         20.76GVEU045T14
     K23T22M !C2023 10 17.03379 01 02 11.07 -32 55 44.7          19.3 GVEU045J04
     K23T22M !C2023 10 17.03863 01 02 05.09 -32 55 44.1          19.9 GVEU045J04
     K23T22M KC2023 10 17.28356500 57 09.392-32 54 47.30         20.16GVEU045I52
     K23T22M KC2023 10 17.28457700 57 08.064-32 54 47.16         20.02GVEU045I52
     K23T22M KC2023 10 17.28557500 57 06.829-32 54 46.76         19.75GVEU045I52
     K23T22M KC2023 10 17.28657800 57 05.512-32 54 46.22         19.79GVEU045I52
     K23T22M 3C2023 10 17.47358100 53 09.388-32 53 07.11         20.29GVEU045T14
     K23T22M 3C2023 10 17.47471200 53 07.906-32 53 06.42         20.19GVEU045T14
     K23T22M 3C2023 10 17.47576500 53 06.527-32 53 05.68         20.27GVEU045T14

Observer details:
F51 Pan-STARRS 1, Haleakala.  Observers J. Bulger, T. Lowe, P. Minguez, A.
    Schultz, I. Smith.  Measurers K. Chambers, T. de Boer, J. Fairlamb, H.
    Gao, M. Huber, C.-C. Lin, E. Magnier, Y. Ramanjooloo, R. Wainscoat, R.
    Weryk.  1.8-m Ritchey-Chretien + CCD.
F52 Pan-STARRS 2, Haleakala.  Observers J. Bulger, T. Lowe, P. Minguez, A.
    Schultz, I. Smith.  Measurers K. Chambers, T. de Boer, J. Fairlamb, H.
    Gao, M. Huber, C.-C. Lin, E. Magnier, Y. Ramanjooloo, R. Wainscoat, R.
    Weryk.  1.8-m Ritchey-Chretien + CCD.
I52 Steward Observatory, Mt. Lemmon Station.  Observer G. J. Leonard.
    Measurers E. C. Beshore, D. Fay, J. B. Fazekas, D. C. Fuls, A. R. Gibbs,
    A. D. Grauer, H. Groeller, J. K. Hogan, R. A. Kowalski, S. M. Larson, G.
    J. Leonard, D. Rankin, R. L. Seaman, F. C. Shelly, K. W. Wierzchos.  1.0-m
    prime focus + CCD.
J04 ESA Optical Ground Station, Tenerife.  Observers P. Ruiz, M. Micheli, F.
    Ocana, L. Conversi.  Measurers R. Kresken, M. Micheli, F. Ocana, A.
    Knofel, M. Busch, E. Schwab.  1.0-m f/4.4 reflector + CCD.
T14 Canada-France-Hawaii Telescope, Maunakea.  Observers R. Wainscoat, H.
    Januszewski, T. Burdullis.  Measurers R. Weryk, R. Wainscoat.  3.6-m
    Canada-France-Hawaii Telescope + CCD.

Orbital elements:
2023 TM22                                                Earth MOID = 0.0102 AU
Epoch 2023 Sept. 13.0 TT = JDT 2460200.5                Veres                   
M 241.78661              (2000.0)            P               Q                  
n   1.04416268     Peri.  120.32921     -0.81304017     -0.54944909             
a   0.9622560      Node    27.77190     +0.28032635     -0.65929083             
e   0.4072775      Incl.   24.40704     +0.51027719     -0.51326533             
P   0.94           H   23.97          G   0.15           U   8                  
Residuals in seconds of arc
231014 F51  0.0   0.0     231015 T14  0.1-  0.0     231017 I52  0.2-  0.3-
231014 F51  0.2+  0.1-    231015 T14  0.1+  0.0     231017 I52  0.3+  0.2-
231014 F51  0.1+  0.0     231015 T14  0.0   0.0     231017 I52  0.2-  0.1-
231014 F51  0.3-  0.0     231017 J04  0.2+  0.0     231017 T14  0.1+  0.1+
231014 F52  0.0   0.3+    231017 J04  0.1+  0.2-    231017 T14  0.0   0.0
231014 F52  0.1+  0.2+    231017 I52  0.3+  0.0     231017 T14  0.1-  0.0

Ephemeris:
2023 TM22                a,e,i = 0.96, 0.41, 24                  q = 0.5704
Date    TT    R. A. (2000) Decl.     Delta      r    Elong.  Phase     V
2023 09 17    03 25 04.3 -24 04 17   0.3497  1.2220   120.8    45.0    23.8
...
2023 10 02    03 07 15.6 -27 44 49   0.2114  1.1512   131.1    40.9    22.5
...
2023 10 10    02 30 11.2 -30 43 10   0.1422  1.1072   137.0    37.9    21.5
...
2023 10 16    01 21 16.0 -32 50 30   0.09647 1.0714   138.6    38.0    20.6
2023 10 17    01 02 52.7 -32 54 24   0.08992 1.0652   137.8    38.9    20.4
2023 10 18    00 41 45.5 -32 44 53   0.08385 1.0589   136.5    40.4    20.3
...
2023 10 24    21 46 37.9 -21 54 21   0.06447 1.0201   111.3    65.3    20.4
...
2023 11 01    18 58 25.7 +02 55 19   0.09591 0.9649    70.5   104.2    22.6
...
2023 11 16    17 25 24.4 +15 13 00   0.2131  0.8529    45.3   124.4    25.5

M. P. C. Staff               (C) Copyright 2023 MPC           M.P.E.C. 2023-U45





More information about the Iaude mailing list